TimeCDT,TemperatureF,Dew PointF,Humidity,Sea Level PressureIn,VisibilityMPH,Wind Direction,Wind SpeedMPH,Gust SpeedMPH,PrecipitationIn,Events,Conditions,WindDirDegrees,DateUTC
12:11 AM,48.6,34.3,58,29.94,10.0,ENE,10.4,-,N/A,,Clear,70,2014-05-06 05:11:00
12:32 AM,47.7,35.1,62,29.95,10.0,ENE,10.4,-,N/A,,Clear,70,2014-05-06 05:32:00
1:11 AM,47.1,37.4,69,29.95,10.0,East,10.4,-,N/A,,Clear,80,2014-05-06 06:11:00
1:32 AM,46.2,37.4,71,29.94,10.0,East,11.5,-,N/A,,Clear,80,2014-05-06 06:32:00
1:52 AM,46.0,37.0,71,29.94,10.0,East,11.5,-,N/A,,Clear,80,2014-05-06 06:52:00
2:12 AM,46.2,36.9,70,29.94,10.0,ENE,11.5,-,N/A,,Clear,70,2014-05-06 07:12:00
2:32 AM,46.0,37.0,71,29.91,10.0,East,13.8,-,N/A,,Scattered Clouds,80,2014-05-06 07:32:00
6:51 AM,42.3,37.4,83,29.94,10.0,East,5.8,-,N/A,,Clear,90,2014-05-06 11:51:00
7:12 AM,43.0,37.4,81,29.95,10.0,East,4.6,-,N/A,,Clear,100,2014-05-06 12:12:00
7:32 AM,43.7,37.8,80,29.96,10.0,ESE,5.8,-,N/A,,Clear,120,2014-05-06 12:32:00
7:51 AM,44.8,37.9,77,29.98,10.0,ESE,3.5,-,N/A,,Clear,110,2014-05-06 12:51:00
8:12 AM,46.4,37.9,72,29.97,10.0,ESE,6.9,-,N/A,,Scattered Clouds,110,2014-05-06 13:12:00
8:32 AM,47.5,37.8,69,29.95,10.0,ESE,10.4,-,N/A,,Clear,120,2014-05-06 13:32:00
9:12 AM,51.3,36.1,56,29.95,10.0,SE,12.7,17.3,N/A,,Clear,130,2014-05-06 14:12:00
9:32 AM,51.4,35.4,54,29.89,10.0,ESE,18.4,23.0,N/A,,Clear,120,2014-05-06 14:32:00
9:52 AM,52.9,35.1,51,29.89,10.0,ESE,17.3,25.3,N/A,,Clear,120,2014-05-06 14:52:00
10:12 AM,53.1,35.2,51,29.90,10.0,ESE,18.4,24.2,N/A,,Clear,120,2014-05-06 15:12:00
10:32 AM,54.3,34.5,47,29.90,10.0,ESE,17.3,20.7,N/A,,Clear,110,2014-05-06 15:32:00
10:52 AM,55.9,33.1,42,29.91,10.0,SE,15.0,23.0,N/A,,Clear,130,2014-05-06 15:52:00
11:12 AM,55.0,32.0,42,29.92,10.0,SE,16.1,21.9,N/A,,Clear,140,2014-05-06 16:12:00
11:31 AM,55.4,32.0,41,29.93,10.0,SE,12.7,21.9,N/A,,Clear,140,2014-05-06 16:31:00
11:52 AM,56.1,32.0,40,29.88,10.0,SE,20.7,27.6,N/A,,Clear,130,2014-05-06 16:52:00
12:12 PM,56.1,32.0,40,29.86,10.0,SE,21.9,31.1,N/A,,Clear,130,2014-05-06 17:12:00
12:31 PM,57.9,33.1,39,29.84,10.0,SE,23.0,29.9,N/A,,Clear,130,2014-05-06 17:31:00
12:52 PM,57.7,32.0,38,29.83,10.0,SE,21.9,32.2,N/A,,Clear,130,2014-05-06 17:52:00
1:31 PM,59.0,32.5,37,29.84,10.0,ESE,19.6,26.5,N/A,,Clear,110,2014-05-06 18:31:00
1:52 PM,59.5,33.4,37,29.84,10.0,ESE,17.3,24.2,N/A,,Clear,110,2014-05-06 18:52:00
2:12 PM,60.4,33.4,36,29.83,10.0,ESE,17.3,23.0,N/A,,Clear,110,2014-05-06 19:12:00
2:31 PM,61.3,34.0,36,29.82,10.0,ESE,19.6,23.0,N/A,,Clear,110,2014-05-06 19:31:00
2:52 PM,62.8,33.4,33,29.82,10.0,ESE,18.4,27.6,N/A,,Clear,110,2014-05-06 19:52:00
3:12 PM,62.2,33.6,34,29.81,10.0,ESE,18.4,24.2,N/A,,Clear,110,2014-05-06 20:12:00
3:31 PM,61.3,34.0,36,29.79,10.0,ESE,18.4,26.5,N/A,,Clear,110,2014-05-06 20:31:00
3:52 PM,61.0,34.5,37,29.80,10.0,ESE,13.8,24.2,N/A,,Clear,120,2014-05-06 20:52:00
4:12 PM,60.4,34.7,38,29.81,10.0,ESE,15.0,20.7,N/A,,Mostly Cloudy,110,2014-05-06 21:12:00
4:32 PM,59.9,34.5,39,29.81,10.0,East,13.8,-,N/A,,Overcast,100,2014-05-06 21:32:00
4:52 PM,59.9,34.9,39,29.81,10.0,East,11.5,19.6,N/A,,Overcast,100,2014-05-06 21:52:00
5:12 PM,60.8,35.6,39,29.79,10.0,ESE,17.3,-,N/A,,Overcast,110,2014-05-06 22:12:00
5:32 PM,60.3,35.2,39,29.80,10.0,ESE,17.3,24.2,N/A,,Scattered Clouds,110,2014-05-06 22:32:00
5:52 PM,60.1,35.4,40,29.80,10.0,ESE,12.7,21.9,N/A,,Scattered Clouds,110,2014-05-06 22:52:00
6:11 PM,59.9,35.8,41,29.80,10.0,East,13.8,20.7,N/A,,Mostly Cloudy,90,2014-05-06 23:11:00
6:32 PM,59.2,37.6,45,29.79,10.0,East,13.8,-,N/A,,Overcast,80,2014-05-06 23:32:00
6:51 PM,58.8,37.9,46,29.79,10.0,ENE,13.8,20.7,N/A,,Overcast,70,2014-05-06 23:51:00
7:12 PM,58.6,38.1,46,29.79,10.0,East,11.5,-,N/A,,Overcast,80,2014-05-07 00:12:00
7:32 PM,58.3,39.0,49,29.79,10.0,East,9.2,-,N/A,,Mostly Cloudy,80,2014-05-07 00:32:00
7:52 PM,58.1,39.0,49,29.80,10.0,East,8.1,-,N/A,,Mostly Cloudy,90,2014-05-07 00:52:00
8:12 PM,57.6,39.4,51,29.80,10.0,East,8.1,-,N/A,,Mostly Cloudy,80,2014-05-07 01:12:00
8:32 PM,57.2,39.4,51,29.81,10.0,East,6.9,-,N/A,,Overcast,80,2014-05-07 01:32:00
8:52 PM,56.7,39.4,52,29.82,10.0,East,10.4,-,N/A,,Overcast,80,2014-05-07 01:52:00
9:12 PM,56.5,39.6,53,29.82,10.0,East,9.2,-,N/A,,Overcast,90,2014-05-07 02:12:00
9:32 PM,56.3,39.6,53,29.82,10.0,East,12.7,17.3,N/A,,Overcast,90,2014-05-07 02:32:00
9:52 PM,56.3,39.2,53,29.82,10.0,East,12.7,-,N/A,,Overcast,80,2014-05-07 02:52:00
10:11 PM,55.9,39.2,53,29.80,10.0,East,17.3,-,N/A,,Overcast,90,2014-05-07 03:11:00
10:32 PM,55.6,39.0,54,29.79,10.0,East,16.1,23.0,N/A,,Overcast,90,2014-05-07 03:32:00
10:52 PM,55.6,38.8,53,29.80,10.0,East,15.0,-,N/A,,Overcast,90,2014-05-07 03:52:00
11:12 PM,55.0,39.0,55,29.79,10.0,East,15.0,20.7,N/A,,Overcast,80,2014-05-07 04:12:00
11:32 PM,54.9,38.7,54,29.80,10.0,East,16.1,-,N/A,,Overcast,80,2014-05-07 04:32:00
11:52 PM,54.7,38.7,55,29.80,10.0,East,15.0,20.7,N/A,,Overcast,80,2014-05-07 04:52:00